TimeCDT,TemperatureF,Dew PointF,Humidity,Sea Level PressureIn,VisibilityMPH,Wind Direction,Wind SpeedMPH,Gust SpeedMPH,PrecipitationIn,Events,Conditions,WindDirDegrees,DateUTC
12:36 AM,53.6,48.2,82,29.96,9.0,Variable,4.6,-,N/A,,Overcast,0,2012-10-23 05:36:00
1:54 AM,53.1,48.0,83,29.96,10.0,East,5.8,-,N/A,,Overcast,90,2012-10-23 06:54:00
2:54 AM,53.1,48.0,83,29.94,10.0,ENE,8.1,-,N/A,,Overcast,70,2012-10-23 07:54:00
3:54 AM,53.1,46.0,77,29.93,10.0,East,8.1,-,N/A,,Overcast,80,2012-10-23 08:54:00
4:27 AM,51.8,46.4,82,29.90,10.0,East,15.0,-,N/A,,Overcast,80,2012-10-23 09:27:00
4:54 AM,52.0,46.0,80,29.92,10.0,East,11.5,21.9,N/A,,Overcast,100,2012-10-23 09:54:00
5:54 AM,50.0,46.0,86,29.93,10.0,East,5.8,-,N/A,,Mostly Cloudy,100,2012-10-23 10:54:00
7:12 AM,50.0,46.4,87,29.91,10.0,East,9.2,-,N/A,,Overcast,100,2012-10-23 12:12:00
7:54 AM,50.0,46.0,86,29.94,9.0,Variable,3.5,-,N/A,,Overcast,0,2012-10-23 12:54:00
8:49 AM,51.8,46.4,82,29.91,8.0,East,10.4,-,N/A,,Overcast,90,2012-10-23 13:49:00
8:54 AM,51.1,46.9,86,29.94,8.0,ESE,10.4,-,N/A,,Overcast,110,2012-10-23 13:54:00
9:54 AM,52.0,48.9,89,29.92,6.0,ESE,10.4,-,N/A,,Overcast,110,2012-10-23 14:54:00
10:54 AM,52.0,50.0,93,29.91,4.0,SE,11.5,-,N/A,,Overcast,130,2012-10-23 15:54:00
11:37 AM,51.8,51.8,100,29.88,2.5,ESE,9.2,-,N/A,,Overcast,120,2012-10-23 16:37:00
11:54 AM,53.1,51.1,93,29.91,2.0,SE,10.4,-,N/A,,Overcast,130,2012-10-23 16:54:00
12:06 PM,53.6,51.8,94,29.88,3.0,SE,9.2,-,N/A,,Overcast,130,2012-10-23 17:06:00
12:54 PM,54.0,52.0,93,29.89,4.0,SE,8.1,-,0.00,Rain,Light Rain,140,2012-10-23 17:54:00
1:54 PM,54.0,53.1,97,29.87,1.5,SE,6.9,-,0.00,,Overcast,130,2012-10-23 18:54:00
2:04 PM,55.4,53.6,94,29.84,3.0,ESE,8.1,-,N/A,,Overcast,120,2012-10-23 19:04:00
2:54 PM,55.0,54.0,96,29.85,5.0,SE,8.1,-,N/A,,Overcast,140,2012-10-23 19:54:00
3:44 PM,55.4,55.4,100,29.83,2.5,SE,8.1,-,N/A,,Overcast,130,2012-10-23 20:44:00
3:54 PM,55.9,55.0,97,29.84,2.5,SE,9.2,-,N/A,,Overcast,130,2012-10-23 20:54:00
4:40 PM,55.4,55.4,100,29.83,1.8,ESE,8.1,-,N/A,,Overcast,120,2012-10-23 21:40:00
4:54 PM,55.9,55.0,97,29.85,1.0,ESE,8.1,-,N/A,,Overcast,120,2012-10-23 21:54:00
5:03 PM,55.4,55.4,100,29.83,0.8,ESE,9.2,-,N/A,,Overcast,120,2012-10-23 22:03:00
5:54 PM,55.9,55.9,100,29.85,0.5,ESE,5.8,-,N/A,Fog,Fog,120,2012-10-23 22:54:00
6:08 PM,55.4,55.4,100,29.83,1.0,ESE,6.9,-,N/A,,Overcast,120,2012-10-23 23:08:00
6:54 PM,55.9,55.9,100,29.87,1.5,SE,5.8,-,N/A,,Overcast,130,2012-10-23 23:54:00
7:54 PM,57.0,55.9,96,29.87,1.5,ESE,10.4,-,N/A,,Overcast,110,2012-10-24 00:54:00
8:13 PM,57.2,57.2,100,29.85,2.0,ESE,10.4,-,0.00,,Overcast,110,2012-10-24 01:13:00
8:29 PM,57.2,57.2,100,29.85,3.0,ESE,8.1,-,0.00,,Overcast,110,2012-10-24 01:29:00
8:54 PM,57.9,57.0,97,29.86,4.0,ESE,8.1,-,0.00,,Overcast,120,2012-10-24 01:54:00
9:54 PM,59.0,57.9,96,29.88,4.0,ESE,5.8,-,N/A,,Overcast,120,2012-10-24 02:54:00
10:54 PM,59.0,59.0,100,29.88,2.0,SE,8.1,-,N/A,,Overcast,130,2012-10-24 03:54:00
11:14 PM,59.0,59.0,100,29.84,1.8,ESE,9.2,-,0.01,Rain,Light Rain,120,2012-10-24 04:14:00
11:54 PM,59.0,59.0,100,29.86,0.8,SE,8.1,-,0.01,,Overcast,140,2012-10-24 04:54:00